AirNav   Everest Fuels
 
 1231 users online  

4NC0 Boyd's Hawks Creek Airport
Mocksville, North Carolina, USA

GOING TO MOCKSVILLE?


FAA INFORMATION EFFECTIVE 31 DECEMBER 2020

Location

FAA Identifier: 4NC0
Lat/Long: 35-53-56.5800N 080-37-03.5600W
35-53.943000N 080-37.059333W
35.8990500,-80.6176556
(estimated)
Elevation: 815 ft. / 248 m (estimated)
Variation: 06W (1985)
From city: 3 miles W of MOCKSVILLE, NC
Time zone: UTC -5 (UTC -4 during Daylight Saving Time)
Zip code: 27028

Airport Operations

Airport use: Private use. Permission required prior to landing
Activation date: 03/1985
Control tower: no
ARTCC: ATLANTA CENTER
FSS: RALEIGH FLIGHT SERVICE STATION
Attendance: UNATNDD
Wind indicator: yes
Segmented circle: no

Airport Communications

WX AWOS-3 at RUQ (16 nm S): 118.175 (704-637-6197)
WX AWOS-3 at EXX (17 nm SE): 119.825 (336-956-2967)
WX AWOS-3 at SVH (18 nm SW): 119.225 (704-873-1978)

Nearby radio navigation aids

VOR radial/distance  VOR name  Freq  Var
BZMr093/30.3BARRETTS MOUNTAIN VOR/DME110.8006W
GSOr257/32.4GREENSBORO VORTAC116.2003W

 
NDB name  Hdg/Dist  Freq  Var  ID
ROVDY334/11.727506WRU .-. ..-
ZEPHYR176/25.232608WZEF --.. . ..-.

Airport Services

Runway Information

Runway 11/29

Dimensions: 2000 x 60 ft. / 610 x 18 m
Surface: turf
RUNWAY 11  RUNWAY 29
Traffic pattern: leftleft
Obstructions: 30 ft. trees, 100 ft. from runway20 ft. pline, 800 ft. from runway

Airport Ownership and Management from official FAA records

Ownership: Privately-owned
Owner: DON J. BOYD
196 MCALLISTER RD
MOCKSVILLE, NC 27028
Phone 336-492-2080
Manager: DON J. BOYD
196 MCALLISTER RD
MOCKSVILLE, NC 27028
Phone 336-408-0785

Airport Operational Statistics

Aircraft based on the field: 3
Single engine airplanes: 3
    

Additional Remarks

FOR CD CTC ATLANTA ARTCC AT 770-210-7692.

Instrument Procedures

There are no published instrument procedures at 4NC0.

Some nearby airports with instrument procedures:

8A7 - Twin Lakes Airport (8 nm E)
KRUQ - Mid-Carolina Regional Airport (16 nm S)
KEXX - Davidson County Airport (17 nm SE)
KSVH - Statesville Regional Airport (18 nm SW)
14A - Lake Norman Airpark (22 nm SW)
 
Loc | Ops | Rwys | IFR | FBO | Links
Com | Nav | Svcs | Stats | Notes
Area around 4NC0 (Boyd's Hawks Creek Airport)
 
Road maps at: MapQuest Bing Google
 
Aerial photo
WARNING: Photo may not be current or correct
Aerial photo of 4NC0 (Boyd's Hawks Creek Airport)
Do you have a better or more recent aerial photo of Boyd's Hawks Creek Airport that you would like to share? If so, please send us your photo.

 
Sectional chart

 
Airport distance calculator
Flying to Boyd's Hawks Creek Airport? Find the distance to fly.

From to 4NC0

Sunrise and sunset
Times for 15-Jan-2021
 Local
(UTC-5)
 Zulu
(UTC)
Morning civil twilight07:0512:05
Sunrise07:3312:33
Sunset17:3122:31
Evening civil twilight17:5922:59

Current date and time
Zulu (UTC)  15-Jan-2021 23:02:20
Local (UTC-5)  15-Jan-2021 18:02:20
 
METAR
KRUQ 
16nm S 
152255Z AUTO 00000KT 4SM BR BKN016 04/03 A2970 RMK AO2 T00390032
KEXX 
17nm SE 
152235Z AUTO 00000KT 3SM BR SCT026 SCT034 04/04 A2969 RMK AO2 T00440044
KSVH 
18nm SW 
152255Z AUTO 00000KT 5SM BR CLR 04/03 A2968 RMK AO2 T00350029
KINT 
24nm NE 
152254Z 02003KT 1/2SM FG VV005 02/02 A2971 RMK AO2 SLP064 T00220022
KUKF 
30nm NW 
152255Z AUTO 06004KT 3SM BR OVC002 02/02 A2974 RMK AO2
KJQF 
31nm S 
152255Z 00000KT 7SM CLR 07/06 A2972
TAF
KINT 
24nm NE 
152108Z 1521/1618 30004KT 2SM BR OVC004 TEMPO 1521/1522 1SM BR FM160000 30005KT P6SM SCT035 FM160800 VRB02KT 4SM BR BKN035 FM161500 25005KT P6SM BKN035
NOTAMs
Click for the latest NOTAMs
NOTAMs are issued by the DoD/FAA and will open in a separate window not controlled by AirNav.

 

 
 

Would you like to see your business listed on this page?

 If your business provides an interesting product or service to pilots, flight crews, aircraft, or users of the Boyd's Hawks Creek Airport, you should consider listing it here.  To start the listing process, click on the button below
 
Add a business
 

Other Pages about Boyd's Hawks Creek Airport

Update a link
 
Copyright © AirNav, LLC. All rights reserved. Privacy Policy  Contact